Wenatchee, WA

4:35 AM PDT on August 22, 2017 (GMT -0700)
Pangborn Memorial

Weather History for KEAT - March, 2014

Change the Weather History Date:

Friday, March 21, 2014

  Actual Average Record
Temperature  
Mean Temperature 41 °F 40 °F  
Max Temperature 53 °F 50 °F 72 °F (1960)
Min Temperature 29 °F 31 °F 25 °F (2002)
Degree Days  
Heating Degree Days 24 24  
Month to date heating degree days 463 578  
Since 1 July heating degree days 5033 5777  
Cooling Degree Days 0 0  
Month to date cooling degree days 0 0  
Year to date cooling degree days 0 0  
Moisture  
Dew Point 16 °F    
Average Humidity 43    
Maximum Humidity 69    
Minimum Humidity 16    
Precipitation  
Precipitation 0.00 in 0.06 in 0.33 in (2017)
Month to date precipitation 0.59 1.14  
Year to date precipitation 1.79 4.47  
Snow  
Snow 0.00 in 0.10 in - ()
Month to date snowfall 3.5  
Since 1 July snowfall 49.9  
Snow Depth -    
Sea Level Pressure  
Sea Level Pressure 30.29 in    
Wind  
Wind Speed 6 mph (WNW)    
Max Wind Speed 13 mph    
Max Gust Speed 17 mph    
Visibility 10 miles    
Events      
T = Trace of Precipitation, MM = Missing Value Source: NWS Daily Summary

Daily Weather History Graph

Daily Weather History Graph

Search for Another Location

Airport or City:

Trip Planner

Search our weather history database for the weather conditions in past years. The results will help you decide how hot, cold, wet, or windy it might be!

Date:

Astronomy

Mar. 21, 2014 Rise Set
Actual Time 7:01 AM PDT 7:15 PM PDT
Civil Twilight 6:30 AM PDT 7:45 PM PDT
Nautical Twilight 5:54 AM PDT 8:21 PM PDT
Astronomical Twilight 5:17 AM PDT 8:59 PM PDT
Moon No Moon Rise 9:38 AM PDT (3/21)
Length of Visible Light 13h 14m
Length of Day
12h 13m
Waning Gibbous, 74% of the Moon is Illuminated
Mar 21
Waning Gibbous
Mar 23
Last Quarter
Mar 30
New
Apr 7
First Quarter
Apr 15
Full

Hourly Weather History & Observations

Time (PDT) Temp. Windchill Dew Point Humidity Pressure Visibility Wind Dir Wind Speed Gust Speed Precip Events Conditions
12:55 AM 39.0 °F 31.8 °F 19.0 °F 45% 30.30 in 10.0 mi NW 11.5 mph - N/A   Clear
1:55 AM 35.1 °F 28.6 °F 19.9 °F 54% 30.30 in 10.0 mi NW 8.1 mph - N/A   Clear
2:55 AM 35.1 °F 30.1 °F 19.9 °F 54% 30.31 in 10.0 mi NNW 5.8 mph - N/A   Clear
3:55 AM 32.0 °F 25.6 °F 19.9 °F 61% 30.31 in 10.0 mi West 6.9 mph - N/A   Clear
4:55 AM 32.0 °F 26.4 °F 21.0 °F 64% 30.31 in 10.0 mi West 5.8 mph - N/A   Clear
5:55 AM 30.9 °F 23.5 °F 19.9 °F 64% 30.32 in 10.0 mi WNW 8.1 mph - N/A   Clear
6:55 AM 30.0 °F 22.4 °F 19.9 °F 66% 30.32 in 10.0 mi West 8.1 mph - N/A   Clear
7:55 AM 30.9 °F 24.3 °F 21.0 °F 67% 30.33 in 10.0 mi West 6.9 mph - N/A   Clear
8:55 AM 35.1 °F 27.9 °F 21.0 °F 57% 30.33 in 10.0 mi West 9.2 mph - N/A   Clear
9:55 AM 37.9 °F 30.9 °F 19.9 °F 48% 30.33 in 10.0 mi West 10.4 mph - N/A   Clear
10:55 AM 41.0 °F 35.8 °F 17.1 °F 38% 30.32 in 10.0 mi West 8.1 mph - N/A   Clear
11:55 AM 43.0 °F 38.2 °F 16.0 °F 34% 30.31 in 10.0 mi West 8.1 mph - N/A   Clear
12:55 PM 46.9 °F - 16.0 °F 29% 30.30 in 10.0 mi NW 4.6 mph - N/A   Clear
1:55 PM 50.0 °F - 16.0 °F 26% 30.27 in 10.0 mi Calm Calm - N/A   Clear
2:55 PM 50.0 °F - 10.0 °F 20% 30.25 in 10.0 mi WNW 3.5 mph - N/A   Clear
3:55 PM 51.1 °F - 8.1 °F 18% 30.24 in 10.0 mi Variable 5.8 mph - N/A   Clear
4:55 PM 51.1 °F - 6.1 °F 16% 30.22 in 10.0 mi SW 8.1 mph - N/A   Clear
5:55 PM 51.1 °F - 8.1 °F 18% 30.23 in 10.0 mi Variable 4.6 mph - N/A   Clear
6:55 PM 48.9 °F - 12.9 °F 24% 30.23 in 10.0 mi South 3.5 mph - N/A   Partly Cloudy
7:55 PM 45.0 °F 42.6 °F 14.0 °F 29% 30.25 in 10.0 mi North 4.6 mph - N/A   Clear
8:55 PM 44.1 °F - 15.1 °F 31% 30.26 in 10.0 mi North - - N/A   Partly Cloudy
9:55 PM 42.1 °F 40.2 °F 16.0 °F 35% 30.28 in 10.0 mi West 3.5 mph - N/A   Clear
10:55 PM 39.0 °F 34.8 °F 17.1 °F 41% 30.30 in 10.0 mi NNW 5.8 mph - N/A   Clear
11:55 PM 37.9 °F 34.4 °F 17.1 °F 43% 30.30 in 10.0 mi NNW 4.6 mph - N/A   Clear